SL-8 DEB

Satellite information

Favourite Embed

Satellite Type and Status

DEBRISIN ORBIT

Key statistics

Satellite SL-8 DEB at a glance.

Uptime

20577

Days in orbit

Revolutions

≈ 14.5

Per day

Orbit

LEO

Low Earth Orbit

Inclination

74.1

Latest

Satellite identification and parameters

Extended collection of information and parameters for SL-8 DEB.

Object identification

Identified? True

Debris? True

Object name: SL-8 DEB

International designator: 1969-070C

Object number (NORAD): 4084

Object ID (CCSDS): 4084

Country: COMMONWEALTH OF INDEPENDENT STATES (CIS)

Current information (Y/N): Y

RCS size: MEDIUM

Orbital parameters

Period: 99.516 minutes

Inclination: 74.0681 deg

SMA: 7113.602 km

Apoapsis: 751.652 km

Periapsis: 719.283 km

RAAN: 302.3175 deg

Eccentricy: 0.00227517

Argument of periapsis: 242.8661 deg

Mean anomaly: 117.0178 deg

Mean motion: 14.46999528 rev/day

Mean motion (dot): 0.00000305 rev/day2

B* drag term: 0.000091015113 1/REarth

Two-line elements (TLE)

Creation date: Dec. 14, 2025, 3:07 a.m.

Reference frame: TEME

Reference center: EARTH

Epoch: Dec. 13, 2025, 7:57 a.m. UTC

TLE line 0: 0 SL-8 DEB

TLE line 1: 1 04084U 69070C 25347.33177806 .00000305 00000-0 91015-4 0 9992

TLE line 2: 2 04084 74.0681 302.3175 0022752 242.8661 117.0178 14.46999528968883

Live tracking on map

Real-time ground track for satellite SL-8 DEB.

In-orbit conjunctions

A list of the most updated potential collisions computed for object SL-8 DEB.

Target Orbit TCA Probability of collision Miss distance Type
FENGYUN 1C DEB SSO 2025-07-05 17:37:28 0.0001159779 128.0 (m) DEBRIS
CZ-4 DEB SSO 2024-12-28 05:16:13 0.0001397237 40.0 (m) DEBRIS

Associated space launch

The first soviet navigation system called Tsiklon consisted of Zaliv satellites in low earth orbit.

SL-8 DEB was lifted into orbit during the mission ‘Kosmos-3M | Zaliv 3’, on board a Kosmos-3M space rocket.

The launch took place on Aug. 13, 1969, 10 p.m. from 132/2.

For more information about the launch, click the button.

Launch to space Kosmos-3M | Zaliv 3
Kosmos-3M | Zaliv 3

Agency: N/A

Status: Launch Successful

Launch date: Aug. 13, 1969, 10 p.m. UTC

Rocket: Kosmos-3M

Launch pad: 132/2

Location: Plesetsk Cosmodrome, Russian Federation

...

Latest news about this satellite

There are no fresh news available about this satellite. Check back as we update our databases every day.


Newsletter sign-up

Weekly statistics, charts and insights to help you stay on top of the space industry.